Погода в Икоде де лосе Виносе

Испания     28°22′17″N   16°43′17″W
темп.,
°C
ветер,
м/с
пор.,
м/с
влажн.,
%
обл.,
%
осадки,
мм/ч
давл.,
гПа
погр.,
м
23 апреля, пт
пт2301:00+15с11545 0.0 101733
04:00+13с33590 0.0 101653
07:00+13ссв335434 0.0 101635
10:00+17ссз1252100 0.0 1016482
13:00+19сз325515 0.0 1016953
16:00+18сз447562 0.1 1015775
19:00+16ссз447237 0.3 1015511
22:00+13ссв338039 0.0 1017270
24 апреля, сб
сб2401:00+12с228238 0.1 1017331
04:00+11с338139 0.0 1015297
07:00+11ссв338037 0.0 1015251
10:00+13с22613 0.0 1015558
13:00+14сз437059 0.0 1015792
16:00+16ссз545825 0.0 1013868
19:00+14сз556921 0.1 1013644
22:00+11с458055 0.0 1014426
25 апреля, вс
вс2501:00+11ссв237826 0.1 1014331
04:00+10с238522 0.0 1013170
07:00+9ссв348430 0.1 1012135
10:00+12с337238 0.0 1013574
13:00+16сз335426 0.0 1013888
16:00+17сз54516 0.0 1012890
19:00+15зсз546712 0.0 1013620
22:00+12ссз237844 0.0 1014171
26 апреля, пн
пн2601:00+12ссв228251 0.0 1014146
04:00+11ссв228340 0.0 101359
07:00+11св11772 0.0 101328
10:00+15сз22575 0.0 1014538
13:00+17зсз326777 0.0 1014917
16:00+14сз338692 0.1 1013486
19:00+15ссз438046 0.2 1013481
22:00+13ссв228449 0.0 1014236
27 апреля, вт
вт2701:00+12ссв11866 0.0 1014115
04:00+11всв118959 0.0 101358
07:00+10всв11885 0.1 101337
10:00+14з217219 0.0 1014570
13:00+16зсз326859 0.1 1014786
16:00+15зсз327459 0.1 1013699
19:00+15сз437432 0.1 1013541
22:00+13ссв22797 0.0 1014244